カタログに戻る

COSMOS 2499 DEB

運用中PO
NORAD 55723·DEBRIS·🇷🇺 Russia

打ち上げ May 23, 2014 から Plesetsk Cosmodrome

Loading…

次のパス (今後24時間)

TLE

最新Source: Space-Track

元期: Sep 13, 2026, 15:12 UTC

1 55723U 14028AK  26256.63339250  .00001890  00000-0  76788-2 0  9995
2 55723  82.5819 221.6189 0191438 191.4810 168.1896 12.79731954170180

AllMySatでCOSMOS 2499 DEBをリアルタイム追跡

Download on the App Store